| time (UTC) | temp C | wind direction | speed KPH | gust KPH | rain 1hr cm | rain 24hr cm | rain mn cm | humidity % | barometer mb |
| 20260504150922 | 16 | 300 | 6.4 | 0.0 | 0.00 | 0.00 | 0.00 | 91 | 1016.0 |
| 20260504140518 | 16 | 120 | 4.8 | 0.0 | 0.00 | 0.00 | 0.00 | 10 | 1016.0 |
| 20260504130111 | 13 | 0 | 1.6 | 0.0 | 0.00 | 0.00 | 0.00 | 10 | 1017.0 |
| 20260504100500 | 8 | 110 | 6.4 | 4.8 | 0.00 | 0.00 | 0.00 | 82 | 1017.0 |
| 20260504081253 | 9 | 112 | 6.4 | 4.8 | 0.00 | 0.00 | 0.00 | 82 | 1017.0 |
| 20260504044445 | 10 | 111 | 4.8 | 3.2 | 0.00 | 0.00 | 0.00 | 82 | 1018.0 |
| 20260504042844 | 10 | 108 | 6.4 | 4.8 | 0.00 | 0.00 | 0.00 | 82 | 1018.0 |
| 20260504041244 | 10 | 108 | 6.4 | 4.8 | 0.00 | 0.00 | 0.00 | 82 | 1018.0 |
| 20260504035643 | 10 | 110 | 6.4 | 4.8 | 0.05 | 0.00 | 0.00 | 82 | 1018.0 |
| 20260504034042 | 10 | 107 | 8.0 | 4.8 | 0.00 | 0.00 | 0.00 | 82 | 1018.0 |
| 20260504032428 | 10 | 107 | 8.0 | 4.8 | 0.00 | 0.00 | 0.00 | 82 | 1018.0 |
| 20260504030823 | 10 | 107 | 8.0 | 4.8 | 0.00 | 0.00 | 0.00 | 82 | 1018.0 |
| 20260504025222 | 10 | 107 | 8.0 | 4.8 | 0.00 | 0.00 | 0.00 | 82 | 1018.0 |
| 20260504023622 | 10 | 107 | 8.0 | 4.8 | 0.00 | 0.00 | 0.00 | 82 | 1018.0 |
| 20260504022021 | 10 | 107 | 8.0 | 4.8 | 0.00 | 0.00 | 0.00 | 82 | 1017.0 |
| 20260504020420 | 11 | 107 | 8.0 | 4.8 | 0.00 | 0.00 | 0.00 | 82 | 1017.0 |
| 20260504014819 | 11 | 107 | 8.0 | 4.8 | 0.00 | 0.00 | 0.00 | 82 | 1017.0 |
| 20260504013216 | 11 | 107 | 8.0 | 4.8 | 0.00 | 0.00 | 0.00 | 81 | 1017.0 |
| 20260504011614 | 10 | 89 | 1.6 | 1.6 | 0.00 | 0.00 | 0.00 | 79 | 1016.0 |
| 20260504010013 | 10 | 89 | 1.6 | 1.6 | 0.00 | 0.00 | 0.00 | 79 | 1016.0 |
| 20260504004413 | 10 | 89 | 1.6 | 1.6 | 0.00 | 0.00 | 0.00 | 79 | 1016.0 |
| 20260504002812 | 11 | 89 | 1.6 | 1.6 | 0.00 | 0.00 | 0.00 | 77 | 1015.0 |
| 20260504001211 | 11 | 89 | 1.6 | 1.6 | 0.00 | 0.00 | 0.00 | 77 | 1015.0 |
| 20260503235611 | 12 | 89 | 1.6 | 1.6 | 0.00 | 0.00 | 0.00 | 77 | 1015.0 |
| 20260503234010 | 12 | 89 | 1.6 | 1.6 | 0.00 | 0.00 | 0.00 | 77 | 1014.0 |
| 20260503230807 | 13 | 89 | 1.6 | 1.6 | 0.00 | 0.00 | 0.00 | 77 | 1013.0 |
| 20260503225203 | 13 | 89 | 1.6 | 1.6 | 0.00 | 0.00 | 0.00 | 77 | 1013.0 |
| 20260503223600 | 13 | 89 | 1.6 | 1.6 | 0.00 | 0.00 | 0.00 | 77 | 1013.0 |
| 20260503221959 | 14 | 41 | 0.0 | 4.8 | 0.00 | 0.00 | 0.00 | 77 | 1012.0 |
| 20260503220356 | 13 | 300 | 12.9 | 0.0 | 0.00 | 0.00 | 0.00 | 77 | 1012.0 |
| 20260503214756 | 13 | 300 | 12.9 | 0.0 | 0.00 | 0.00 | 0.00 | 77 | 1012.0 |
| 20260503213155 | 14 | 300 | 12.9 | 0.0 | 0.00 | 0.00 | 0.00 | 77 | 1012.0 |
| 20260503211555 | 15 | 300 | 12.9 | 0.0 | 0.00 | 0.00 | 0.00 | 77 | 1012.0 |
| 20260503205954 | 15 | 300 | 12.9 | 0.0 | 0.00 | 0.00 | 0.00 | 77 | 1012.0 |
| 20260503204354 | 16 | 300 | 12.9 | 0.0 | 0.00 | 0.00 | 0.00 | 77 | 1012.0 |
| 20260503202750 | 16 | 300 | 12.9 | 0.0 | 0.00 | 0.00 | 0.00 | 76 | 1012.0 |
| 20260503201146 | 16 | 300 | 12.9 | 0.0 | 0.00 | 0.00 | 0.00 | 74 | 1012.0 |
| 20260503195544 | 17 | 300 | 12.9 | 0.0 | 0.00 | 0.00 | 0.00 | 74 | 1012.0 |
| 20260503193943 | 17 | 300 | 12.9 | 0.0 | 0.00 | 0.00 | 0.00 | 74 | 1012.0 |
| 20260503192342 | 17 | 300 | 12.9 | 0.0 | 0.00 | 0.00 | 0.00 | 74 | 1012.0 |
| 20260503190742 | 17 | 300 | 12.9 | 0.0 | 0.00 | 0.00 | 0.00 | 74 | 1012.0 |
| 20260503185141 | 17 | 300 | 12.9 | 0.0 | 0.00 | 0.00 | 0.00 | 75 | 1012.0 |
| 20260503183541 | 18 | 300 | 12.9 | 0.0 | 0.00 | 0.00 | 0.00 | 75 | 1013.0 |
| 20260503181939 | 18 | 300 | 12.9 | 0.0 | 0.00 | 0.00 | 0.00 | 75 | 1014.0 |
| 20260503180338 | 18 | 300 | 12.9 | 0.0 | 0.00 | 0.00 | 0.00 | 76 | 1014.0 |
| 20260503174738 | 17 | 300 | 12.9 | 0.0 | 0.00 | 0.00 | 0.00 | 79 | 1014.0 |
| 20260503173132 | 17 | 300 | 12.9 | 0.0 | 0.00 | 0.00 | 0.00 | 79 | 1014.0 |
| 20260503171530 | 18 | 300 | 12.9 | 0.0 | 0.00 | 0.00 | 0.00 | 79 | 1015.0 |